Theta_e
276 277 278 279 279 280 282 284 285 285 285 285 285 287 288 290 290 288 289 287 287 292
274 275 276 276 278 279 281 283 283 282 283 283 283 284 285 286 285 286 286 286 286 287
274 274 275 274 276 278 279 280 280 280 281 281 282 283 284 285 285 285 285 286 286 286
273 273 272 274 277 278 279 279 279 279 279 280 280 281 283 283 284 282 284 285 285 284
274 275 271 271 274 278 278 279 279 279 279 279 279 280 281 281 281 282 282 282 283 282
272 274 274 275 277 278 278 278 278 278 278 278 279 279 279 280 279 279 279 280 280 281
270 272 273 275 278 279 279 278 278 278 277 277 278 278 279 279 279 279 279 279 280 279
271 271 272 271 271 273 278 279 279 278 278 278 278 278 277 278 277 277 277 279 281 280
272 273 272 273 272 274 275 277 278 278 279 279 280 282 281 278 277 277 277 277 277 277
273 274 274 275 274 274 275 276 276 278 278 278 280 282 281 279 277 276 276 275 275 275
273 273 274 274 273 273 274 275 276 276 277 278 279 280 279 278 276 275 275 275 274 274
273 273 273 273 272 273 274 274 274 276 275 275 277 280 279 277 275 274 274 275 275 275
271 271 271 272 273 275 276 275 276 276 275 275 275 279 278 276 275 273 272 273 274 279
271 270 271 270 270 271 270 271 269 271 272 273 273 276 279 278 274 274 273 273 271 272
Wind_Speed
7 6 7 9 9 8 7 8 7 7 7 7 5 4 5 5 3 0 2 4 3 3
6 6 7 8 8 7 9 7 7 7 7 5 6 1 4 3 3 1 2 1 4 3
6 5 6 5 7 6 6 6 7 7 6 6 4 3 3 3 3 4 2 2 5 4
5 5 4 5 5 5 4 5 6 6 5 4 3 3 2 3 3 2 4 5 5 5
5 5 4 4 4 4 4 4 4 3 3 5 5 4 2 2 3 3 5 5 6 6
5 5 4 4 4 3 2 3 4 4 4 3 3 2 1 2 2 4 7 6 4 3
5 5 4 4 4 3 2 2 3 4 3 4 5 3 3 5 5 8 10 10 5 5
5 5 5 5 5 5 5 5 4 4 3 4 4 3 5 5 11 10 10 7 6 4
4 4 5 5 5 5 5 6 6 8 6 5 4 13 14 11 8 10 8 7 6 7
3 3 4 5 5 6 6 7 7 8 8 8 8 14 12 12 6 7 6 4 5 7
3 3 3 3 4 5 4 5 5 6 6 5 6 11 10 11 7 6 7 8 8 6
4 5 5 5 4 4 4 5 5 3 5 5 5 10 10 8 6 6 8 7 7 7
2 2 3 4 5 4 4 4 4 4 5 6 5 9 9 6 2 5 4 5 5 8
3 3 3 3 3 3 3 3 3 3 3 4 5 6 7 8 4 3 3 3 3 3
Wind_Direction
279 285 290 288 289 288 293 290 301 300 295 300 310 323 308 282 281 10 287 66 40 348
280 287 284 284 282 284 286 295 303 305 297 295 292 350 299 268 247 160 300 81 64 53
293 279 277 277 279 283 298 306 306 309 300 303 309 350 290 269 250 173 207 100 79 42
300 290 284 287 302 308 310 302 294 289 283 293 331 341 281 280 270 115 60 57 102 73
311 309 321 320 319 319 305 286 278 296 307 8 2 344 288 277 322 103 110 82 75 91
335 338 335 323 305 304 304 331 342 357 13 22 11 18 70 130 137 86 83 79 84 110
336 334 335 324 342 347 348 23 32 41 30 28 36 23 69 89 94 71 62 59 66 70
332 337 346 354 350 349 14 24 30 52 20 51 85 52 47 76 68 77 73 50 57 86
353 349 346 355 1 1 13 23 37 41 31 29 65 92 90 64 74 62 62 69 54 50
356 9 2 4 11 18 19 25 30 34 42 39 36 57 75 97 82 88 90 105 76 60
351 359 15 26 33 26 5 18 30 34 21 37 63 84 73 63 52 68 69 55 53 68
346 341 347 8 11 13 24 19 17 22 40 44 38 64 64 61 52 57 51 47 40 40
337 353 350 347 356 356 4 22 14 29 16 15 19 50 57 63 71 73 62 53 45 69
352 343 349 349 360 1 1 26 12 11 0 12 16 0 39 42 35 41 42 32 9 355